Nagpur Sonegaon, India

3:22 PM IST on December 06, 2016 (GMT +0530)
Nagpur

Weather History for VANP - January, 2013

Change the Weather History Date:

Wednesday, January 9, 2013

  Actual Average Record
Temperature  
Mean Temperature 62 °F -  
Max Temperature 81 °F - - ()
Min Temperature 42 °F - - ()
Degree Days  
Heating Degree Days 4    
Growing Degree Days 12 (Base 50)    
Moisture  
Dew Point 49 °F    
Average Humidity 64    
Maximum Humidity 87    
Minimum Humidity 39    
Precipitation  
Precipitation 0.00 in - - ()
Sea Level Pressure  
Sea Level Pressure 30.02 in    
Wind  
Wind Speed 1 mph ()    
Max Wind Speed 5 mph    
Max Gust Speed -    
Visibility 2.6 miles    
Events      
T = Trace of Precipitation, MM = Missing Value Source: Averaged Metar Reports

Daily Weather History Graph

Daily Weather History Graph

Search for Another Location

Airport or City:

Trip Planner

Search our weather history database for the weather conditions in past years. The results will help you decide how hot, cold, wet, or windy it might be!

Date:

Astronomy

Jan. 09, 2013 Rise Set
Actual Time 6:52 AM IST 5:48 PM IST
Civil Twilight 6:28 AM IST 6:12 PM IST
Nautical Twilight 6:01 AM IST 6:40 PM IST
Astronomical Twilight 5:34 AM IST 7:07 PM IST
Moon 4:02 AM IST (1/9) 3:21 PM IST (1/9)
Length of Visible Light 11h 43m
Length of Day
10h 56m
Waning Crescent, 9% of the Moon is Illuminated
Jan 9
Waning Crescent
Jan 12
New
Jan 19
First Quarter
Jan 27
Full
Feb 3
Last Quarter

Hourly Weather History & Observations

Time (IST) Temp. Heat Index Dew Point Humidity Pressure Visibility Wind Dir Wind Speed Gust Speed Precip Events Conditions
12:10 AM 50.0 °F - 44.6 °F 82% 30.04 in 2.2 mi Calm Calm - N/A   Haze
2:10 AM 48.2 °F - 44.6 °F 87% 30.04 in 2.2 mi Calm Calm - N/A   Haze
2:30 AM 46 °F - 42 °F 83% 30.06 in 1 mi Calm Calm - -   Haze
3:10 AM - - - N/A% 30.04 in - North - - N/A   Haze
4:10 AM 44.6 °F - 41.0 °F 87% 30.01 in - North - - N/A   Haze
5:30 AM 44 °F - 39 °F 78% 30.05 in 1 mi Calm Calm - -   Haze
6:10 AM 42.8 °F - 39.2 °F 87% 30.01 in 1.9 mi Calm Calm - N/A   Mist
7:10 AM 42.8 °F - 39.2 °F 87% 30.04 in 1.9 mi North 2.3 mph - N/A   Haze
8:10 AM 48.2 °F - 41.0 °F 76% 30.09 in 3.1 mi NE 2.3 mph - N/A   Haze
8:30 AM 53 °F - 42 °F 58% 30.10 in 2 mi NE 2.3 mph - -   Haze
9:10 AM 57.2 °F - 44.6 °F 63% 30.09 in 3.1 mi NE 2.3 mph - N/A   Haze
10:10 AM 68.0 °F - 48.2 °F 49% 30.12 in 3.1 mi NE 2.3 mph - N/A   Haze
11:10 AM 71.6 °F - 53.6 °F 53% 30.09 in 3.1 mi NE 4.6 mph - N/A   Haze
11:30 AM 74 °F - 55 °F 41% 30.05 in 2 mi NE 4.6 mph - -   Haze
12:10 PM 75.2 °F - 53.6 °F 47% 30.06 in 3.1 mi East 3.5 mph - N/A   Haze
1:10 PM 77.0 °F - 51.8 °F 41% 30.04 in 3.1 mi East 2.3 mph - N/A   Haze
2:10 PM 78.8 °F - 57.2 °F 47% 29.98 in 3.7 mi East 2.3 mph - N/A   Unknown
2:30 PM 81 °F - 60 °F 39% 29.94 in 6 mi NNE 4.6 mph - -  
3:10 PM 82.4 °F 82.5 °F 59.0 °F 45% 29.95 in 3.7 mi NE 2.3 mph - N/A   Unknown
4:10 PM 80.6 °F 80.8 °F 57.2 °F 45% 29.95 in 3.7 mi Calm Calm - N/A   Unknown
5:10 PM 78.8 °F - 59.0 °F 51% 29.95 in 3.1 mi NNE 2.3 mph - N/A   Haze
5:30 PM 72 °F - 56 °F 48% 29.94 in 2 mi East 2.3 mph - -   Haze
6:10 PM 69.8 °F - 55.4 °F 60% 29.95 in 2.5 mi East 2.3 mph - N/A   Haze
7:10 PM 66.2 °F - 53.6 °F 64% 29.98 in 2.5 mi East 3.5 mph - N/A   Haze
8:10 PM 59.0 °F - 51.8 °F 77% 29.98 in 2.5 mi ENE 2.3 mph - N/A   Haze
8:30 PM 56 °F - 49 °F 69% 30.01 in 2 mi South 2.3 mph - -   Haze
9:10 PM 55.4 °F - 48.2 °F 77% 30.01 in 2.5 mi NNE 2.3 mph - N/A   Haze
10:10 PM 53.6 °F - 48.2 °F 82% 30.01 in 2.5 mi North 2.3 mph - N/A   Haze
11:30 PM 52 °F - 47 °F 76% 30.02 in 1 mi North 2.3 mph - -   Haze